Location: Abundant Grace Fellowship
(35.0349°N, 90.0924°W)
Time: 09:04:40
(UTC+00:00)

Lacrosse 4 Rocket - Visible Passes

Search period start: 10 April 2026 00:00
Search period end: 20 April 2026 00:00
Orbit: 508 x 565 km, 68.0° (Epoch: 9 April)

Date Brightness Start Highest point End Pass type
(mag) Time Alt. Az. Time Alt. Az. Time Alt. Az.
10 Apr 4.0 01:23:48 10° WNW 01:26:46 19° WSW 01:29:46 10° SSW visible
11 Apr 4.2 01:15:08 10° WNW 01:17:46 17° WSW 01:20:25 10° SW visible
12 Apr 4.4 01:06:34 10° WNW 01:08:45 14° WSW 01:10:57 10° SW visible
13 Apr 4.6 00:58:10 10° W 00:59:44 12° WSW 01:01:18 10° SW visible
